RYR282 LTAI-LATI

Flight info

Callsign RYR282
Flight time 1h 33m
Altitude 36000
Route EVBOL1K/18L EVBOL UT489 IMR DCT RIKSO DCT BITLA DCT DOBAR DCT ODRAS
Aircraft B738/M-SDE2E3FGHIRWXY/LB1

Departure

Time 2026-05-05 16:09
Airport Antalya International Airport (LTAI)

Arrival

Time 2026-05-05 17:43
Airport Tirana International Airport Mother Teresa (LATI)
Time Latitude Longitude Altitude Speed Heading
2026-05-05 15:40 36.89540 30.80119 204 ft 0 kts 186°
2026-05-05 15:59 36.89543 30.80120 191 ft 3 kts 186°
2026-05-05 15:59 36.89569 30.80123 191 ft 4 kts 182°
2026-05-05 15:59 36.89595 30.80121 203 ft 4 kts 158°
2026-05-05 16:00 36.89609 30.80106 206 ft 1 kts 97°
2026-05-05 16:00 36.89609 30.80105 206 ft 0 kts 97°
2026-05-05 16:02 36.89608 30.80115 199 ft 6 kts 97°
2026-05-05 16:02 36.89599 30.80218 193 ft 16 kts 96°
2026-05-05 16:03 36.89587 30.80350 195 ft 14 kts 95°
2026-05-05 16:03 36.89577 30.80464 201 ft 13 kts 99°
2026-05-05 16:03 36.89567 30.80574 191 ft 13 kts 97°
2026-05-05 16:03 36.89575 30.80679 194 ft 12 kts 52°
2026-05-05 16:04 36.89596 30.80692 191 ft 5 kts 13°
2026-05-05 16:04 36.89657 30.80703 198 ft 12 kts
2026-05-05 16:04 36.89759 30.80717 191 ft 17 kts
2026-05-05 16:04 36.89894 30.80736 191 ft 21 kts
2026-05-05 16:05 36.90039 30.80755 199 ft 22 kts
2026-05-05 16:05 36.90175 30.80774 204 ft 18 kts
2026-05-05 16:05 36.90298 30.80790 194 ft 17 kts
2026-05-05 16:05 36.90416 30.80807 191 ft 17 kts
2026-05-05 16:06 36.90531 30.80822 196 ft 16 kts
2026-05-05 16:06 36.90639 30.80837 190 ft 16 kts
2026-05-05 16:06 36.90744 30.80853 190 ft 15 kts
2026-05-05 16:06 36.90846 30.80867 190 ft 14 kts
2026-05-05 16:07 36.90942 30.80880 195 ft 14 kts
2026-05-05 16:07 36.90985 30.80969 199 ft 13 kts 92°
2026-05-05 16:07 36.90978 30.81075 189 ft 12 kts 99°
2026-05-05 16:07 36.90918 30.81123 192 ft 11 kts 195°
2026-05-05 16:08 36.90880 30.81110 190 ft 0 kts 193°
2026-05-05 16:08 36.90740 30.81088 194 ft 55 kts 185°
2026-05-05 16:09 36.90118 30.81003 203 ft 122 kts 185°
2026-05-05 16:09 36.89140 30.80858 488 ft 148 kts 186°
2026-05-05 16:09 36.88063 30.80692 998 ft 166 kts 189°
2026-05-05 16:09 36.86861 30.80586 1655 ft 178 kts 182°
2026-05-05 16:10 36.85591 30.80477 2290 ft 194 kts 190°
2026-05-05 16:10 36.84171 30.80066 2567 ft 223 kts 195°
2026-05-05 16:10 36.82585 30.79549 2852 ft 244 kts 195°
2026-05-05 16:10 36.81098 30.78558 3408 ft 246 kts 230°
2026-05-05 16:11 36.80351 30.76661 3804 ft 259 kts 265°
2026-05-05 16:11 36.80618 30.69832 6191 ft 268 kts 276°
2026-05-05 16:12 36.80729 30.67505 7018 ft 269 kts 276°
2026-05-05 16:12 36.80935 30.62810 8668 ft 273 kts 275°
2026-05-05 16:13 36.81227 30.55606 10577 ft 298 kts 274°
2026-05-05 16:13 36.81363 30.52934 10784 ft 319 kts 279°
2026-05-05 16:13 36.82063 30.50232 11015 ft 336 kts 296°
2026-05-05 16:14 36.84276 30.44913 12141 ft 352 kts 298°
2026-05-05 16:14 36.86584 30.39441 13556 ft 359 kts 298°
2026-05-05 16:15 36.88900 30.33839 14967 ft 365 kts 297°
2026-05-05 16:15 36.91213 30.28178 16304 ft 372 kts 297°
2026-05-05 16:16 36.93578 30.22356 17723 ft 378 kts 297°
2026-05-05 16:16 36.95969 30.16452 18980 ft 383 kts 297°
2026-05-05 16:17 36.98367 30.10520 20159 ft 387 kts 297°
2026-05-05 16:17 36.99584 30.07507 20729 ft 390 kts 297°
2026-05-05 16:18 37.02040 30.01415 21824 ft 395 kts 297°
2026-05-05 16:18 37.03278 29.98341 22361 ft 397 kts 297°
2026-05-05 16:18 37.05779 29.92120 23390 ft 403 kts 297°
2026-05-05 16:19 37.07042 29.88972 23836 ft 406 kts 297°
2026-05-05 16:19 37.08312 29.85807 24246 ft 408 kts 297°
2026-05-05 16:19 37.10848 29.79471 25057 ft 412 kts 297°
2026-05-05 16:20 37.13434 29.73000 25813 ft 418 kts 297°
2026-05-05 16:20 37.16045 29.66454 26575 ft 422 kts 297°
2026-05-05 16:21 37.18095 29.59527 27242 ft 428 kts 285°
2026-05-05 16:22 37.20309 29.48628 28199 ft 435 kts 286°
2026-05-05 16:22 37.21858 29.41247 28828 ft 439 kts 286°
2026-05-05 16:23 37.23401 29.33804 29559 ft 441 kts 286°
2026-05-05 16:23 37.24161 29.30087 30065 ft 438 kts 286°
2026-05-05 16:23 37.25672 29.22701 30778 ft 437 kts 286°
2026-05-05 16:24 37.26430 29.19003 31070 ft 437 kts 286°
2026-05-05 16:24 37.27176 29.15362 31405 ft 436 kts 287°
2026-05-05 16:24 37.28680 29.08006 32120 ft 434 kts 287°
2026-05-05 16:25 37.29429 29.04331 32442 ft 434 kts 287°
2026-05-05 16:25 37.30919 28.96998 33155 ft 432 kts 287°
2026-05-05 16:25 37.31660 28.93341 33472 ft 432 kts 287°
2026-05-05 16:26 37.33137 28.86039 34110 ft 430 kts 287°
2026-05-05 16:26 37.34608 28.78741 34587 ft 431 kts 287°
2026-05-05 16:27 37.35464 28.75135 34823 ft 429 kts 293°
2026-05-05 16:27 37.36667 28.71775 35096 ft 427 kts 300°
2026-05-05 16:27 37.38251 28.68639 35306 ft 425 kts 307°
2026-05-05 16:27 37.39979 28.65660 35518 ft 426 kts 307°
2026-05-05 16:28 37.41745 28.62649 35683 ft 427 kts 307°
2026-05-05 16:28 37.43497 28.59639 35921 ft 427 kts 307°
2026-05-05 16:28 37.46981 28.53558 36033 ft 430 kts 306°
2026-05-05 16:29 37.49281 28.49512 36023 ft 428 kts 306°
2026-05-05 16:29 37.52917 28.43080 36024 ft 425 kts 306°
2026-05-05 16:30 37.56341 28.37002 36031 ft 426 kts 306°
2026-05-05 16:30 37.59775 28.30899 36032 ft 427 kts 306°
2026-05-05 16:31 37.63210 28.24783 36021 ft 427 kts 306°
2026-05-05 16:31 37.66621 28.18700 36035 ft 428 kts 306°
2026-05-05 16:32 37.70064 28.12548 36020 ft 429 kts 306°
2026-05-05 16:32 37.73503 28.06392 36029 ft 429 kts 306°
2026-05-05 16:33 37.76943 28.00223 36016 ft 429 kts 306°
2026-05-05 16:33 37.80351 27.94099 36028 ft 429 kts 306°
2026-05-05 16:34 37.83779 27.87928 36023 ft 428 kts 306°
2026-05-05 16:34 37.87193 27.81770 36023 ft 427 kts 306°
2026-05-05 16:35 37.90607 27.75606 36023 ft 427 kts 307°
2026-05-05 16:35 37.93996 27.69493 36023 ft 427 kts 307°
2026-05-05 16:36 37.97386 27.63369 36019 ft 426 kts 307°
2026-05-05 16:36 38.00786 27.57216 36028 ft 426 kts 307°
2026-05-05 16:37 38.04179 27.51061 36014 ft 426 kts 307°
2026-05-05 16:37 38.07576 27.44887 36025 ft 426 kts 307°
2026-05-05 16:38 38.10944 27.38754 36011 ft 426 kts 307°
2026-05-05 16:38 38.14332 27.32574 36023 ft 426 kts 307°
2026-05-05 16:39 38.17717 27.26386 36019 ft 426 kts 307°
2026-05-05 16:39 38.21039 27.20302 36025 ft 426 kts 307°
2026-05-05 16:40 38.24398 27.14140 36019 ft 427 kts 307°
2026-05-05 16:40 38.27780 27.07924 36025 ft 427 kts 307°
2026-05-05 16:41 38.31196 27.01731 36008 ft 427 kts 310°
2026-05-05 16:41 38.35400 26.96465 36032 ft 425 kts 321°
2026-05-05 16:42 38.39915 26.91570 36015 ft 426 kts 321°
2026-05-05 16:42 38.44390 26.86680 36023 ft 427 kts 321°
2026-05-05 16:43 38.48881 26.81720 36026 ft 427 kts 320°
2026-05-05 16:43 38.53373 26.76736 36031 ft 428 kts 321°
2026-05-05 16:44 38.57865 26.71741 36028 ft 429 kts 321°
2026-05-05 16:44 38.62336 26.66762 36031 ft 429 kts 321°
2026-05-05 16:45 38.66838 26.61739 36029 ft 430 kts 321°
2026-05-05 16:45 38.71343 26.56706 36036 ft 430 kts 321°
2026-05-05 16:46 38.75847 26.51663 36034 ft 431 kts 321°
2026-05-05 16:46 38.80363 26.46602 36040 ft 431 kts 321°
2026-05-05 16:47 38.84381 26.40935 36043 ft 436 kts 306°
2026-05-05 16:47 38.87387 26.34175 36036 ft 437 kts 301°
2026-05-05 16:48 38.90304 26.27330 36032 ft 436 kts 301°
2026-05-05 16:48 38.93230 26.20509 36037 ft 436 kts 302°
2026-05-05 16:49 38.96167 26.13704 36040 ft 435 kts 302°
2026-05-05 16:49 38.99108 26.06899 36043 ft 435 kts 302°
2026-05-05 16:50 39.02028 26.00134 36046 ft 436 kts 301°
2026-05-05 16:50 39.04963 25.93315 36047 ft 436 kts 301°
2026-05-05 16:51 39.07898 25.86481 36043 ft 436 kts 301°
2026-05-05 16:51 39.10826 25.79648 36047 ft 436 kts 301°
2026-05-05 16:52 39.13754 25.72800 36047 ft 437 kts 301°
2026-05-05 16:52 39.16659 25.65993 36045 ft 437 kts 301°
2026-05-05 16:53 39.19584 25.59121 36039 ft 437 kts 301°
2026-05-05 16:53 39.22501 25.52253 36042 ft 437 kts 301°
2026-05-05 16:54 39.25414 25.45380 36042 ft 437 kts 301°
2026-05-05 16:54 39.28327 25.38490 36042 ft 437 kts 301°
2026-05-05 16:55 39.31215 25.31648 36042 ft 437 kts 301°
2026-05-05 16:55 39.34118 25.24751 36043 ft 437 kts 301°
2026-05-05 16:56 39.37020 25.17844 36045 ft 437 kts 301°
2026-05-05 16:56 39.39917 25.10930 36042 ft 437 kts 300°
2026-05-05 16:57 39.42811 25.04011 36041 ft 438 kts 300°
2026-05-05 16:57 39.45683 24.97126 36046 ft 438 kts 300°
2026-05-05 16:58 39.48569 24.90195 36045 ft 438 kts 300°
2026-05-05 16:58 39.51453 24.83250 36038 ft 438 kts 300°
2026-05-05 16:59 39.54335 24.76297 36035 ft 438 kts 300°
2026-05-05 16:59 39.57194 24.69383 36035 ft 438 kts 300°
2026-05-05 17:00 39.60065 24.62423 36032 ft 438 kts 300°
2026-05-05 17:00 39.62932 24.55459 36036 ft 438 kts 300°
2026-05-05 17:01 39.65795 24.48487 36032 ft 438 kts 300°
2026-05-05 17:01 39.68655 24.41508 36033 ft 438 kts 300°
2026-05-05 17:02 39.71515 24.34512 36032 ft 439 kts 300°
2026-05-05 17:02 39.74356 24.27546 36034 ft 440 kts 300°
2026-05-05 17:03 39.77225 24.20526 36030 ft 440 kts 300°
2026-05-05 17:03 39.80088 24.13477 36029 ft 442 kts 299°
2026-05-05 17:04 39.82948 24.06392 36026 ft 443 kts 299°
2026-05-05 17:04 39.85812 23.99294 36028 ft 443 kts 299°
2026-05-05 17:05 39.88659 23.92233 36023 ft 444 kts 299°
2026-05-05 17:05 39.91522 23.85114 36028 ft 444 kts 299°
2026-05-05 17:06 39.94384 23.77983 36019 ft 444 kts 299°
2026-05-05 17:06 39.97242 23.70844 36018 ft 444 kts 299°
2026-05-05 17:07 40.00095 23.63699 36017 ft 444 kts 299°
2026-05-05 17:07 40.02923 23.56601 36016 ft 444 kts 299°
2026-05-05 17:08 40.05761 23.49461 36015 ft 443 kts 299°
2026-05-05 17:08 40.08592 23.42320 36012 ft 442 kts 299°
2026-05-05 17:09 40.11414 23.35188 36008 ft 442 kts 299°
2026-05-05 17:09 40.14226 23.28063 36002 ft 441 kts 299°
2026-05-05 17:10 40.17026 23.20950 35999 ft 439 kts 299°
2026-05-05 17:10 40.19812 23.13857 36009 ft 438 kts 299°
2026-05-05 17:11 40.22566 23.06829 35998 ft 436 kts 299°
2026-05-05 17:11 40.25323 22.99772 35988 ft 435 kts 299°
2026-05-05 17:12 40.28066 22.92741 35994 ft 433 kts 299°
2026-05-05 17:12 40.30796 22.85726 35987 ft 431 kts 299°
2026-05-05 17:13 40.33050 22.79919 35993 ft 430 kts 300°
2026-05-05 17:13 40.36211 22.71759 35992 ft 428 kts 300°
2026-05-05 17:14 40.38879 22.64851 35994 ft 427 kts 300°
2026-05-05 17:14 40.41558 22.57903 35999 ft 426 kts 300°
2026-05-05 17:15 40.43774 22.52140 36006 ft 426 kts 300°
2026-05-05 17:15 40.46450 22.45169 36005 ft 428 kts 300°
2026-05-05 17:16 40.49126 22.38182 36005 ft 429 kts 300°
2026-05-05 17:16 40.51805 22.31167 36006 ft 429 kts 300°
2026-05-05 17:17 40.54473 22.24165 36010 ft 428 kts 300°
2026-05-05 17:17 40.57104 22.17239 36009 ft 423 kts 300°
2026-05-05 17:18 40.59719 22.10344 36015 ft 419 kts 300°
2026-05-05 17:18 40.62309 22.03500 36027 ft 417 kts 300°
2026-05-05 17:19 40.64887 21.96671 36034 ft 416 kts 300°
2026-05-05 17:19 40.67443 21.89886 36051 ft 416 kts 300°
2026-05-05 17:20 40.70013 21.83049 36051 ft 417 kts 300°
2026-05-05 17:20 40.72590 21.76173 36045 ft 418 kts 300°
2026-05-05 17:21 40.75169 21.69279 36052 ft 420 kts 299°
2026-05-05 17:22 40.79026 21.58933 36036 ft 421 kts 299°
2026-05-05 17:22 40.81606 21.51990 36054 ft 421 kts 299°
2026-05-05 17:23 40.84181 21.45049 36051 ft 421 kts 299°
2026-05-05 17:23 40.86746 21.38117 36052 ft 420 kts 299°
2026-05-05 17:24 40.89745 21.31634 36064 ft 415 kts 308°
2026-05-05 17:24 40.93101 21.25451 36052 ft 413 kts 308°
2026-05-05 17:24 40.94783 21.22350 35663 ft 418 kts 308°
2026-05-05 17:25 40.96466 21.19229 35089 ft 416 kts 308°
2026-05-05 17:25 40.97577 21.17159 34653 ft 416 kts 308°
2026-05-05 17:25 40.99797 21.13008 33844 ft 413 kts 308°
2026-05-05 17:25 41.01433 21.09933 33097 ft 413 kts 307°
2026-05-05 17:26 41.02846 21.06601 32210 ft 420 kts 297°
2026-05-05 17:26 41.03886 21.02937 31290 ft 428 kts 290°
2026-05-05 17:26 41.04541 20.99050 30307 ft 436 kts 285°
2026-05-05 17:26 41.05093 20.95074 29347 ft 439 kts 284°
2026-05-05 17:27 41.05631 20.91118 28665 ft 433 kts 284°
2026-05-05 17:27 41.06156 20.87273 28064 ft 427 kts 284°
2026-05-05 17:27 41.06695 20.83377 27409 ft 422 kts 284°
2026-05-05 17:27 41.07222 20.79616 26749 ft 419 kts 284°
2026-05-05 17:28 41.07756 20.75834 26079 ft 416 kts 284°
2026-05-05 17:28 41.08288 20.72073 25450 ft 413 kts 284°
2026-05-05 17:28 41.08815 20.68347 24847 ft 409 kts 284°
2026-05-05 17:28 41.09336 20.64658 24235 ft 406 kts 284°
2026-05-05 17:29 41.09853 20.60987 23620 ft 404 kts 284°
2026-05-05 17:29 41.10365 20.57343 22893 ft 401 kts 283°
2026-05-05 17:29 41.10873 20.53712 22225 ft 398 kts 284°
2026-05-05 17:29 41.11369 20.50167 21609 ft 395 kts 284°
2026-05-05 17:30 41.11865 20.46605 20998 ft 392 kts 283°
2026-05-05 17:30 41.12358 20.43063 20385 ft 389 kts 284°
2026-05-05 17:30 41.12845 20.39552 19811 ft 385 kts 284°
2026-05-05 17:30 41.13327 20.36068 19253 ft 383 kts 284°
2026-05-05 17:31 41.13805 20.32607 18737 ft 380 kts 284°
2026-05-05 17:31 41.14272 20.29213 18541 ft 368 kts 284°
2026-05-05 17:31 41.14713 20.25980 18440 ft 353 kts 284°
2026-05-05 17:31 41.15143 20.22833 18351 ft 340 kts 284°
2026-05-05 17:32 41.15562 20.19774 17901 ft 338 kts 284°
2026-05-05 17:32 41.15982 20.16715 17403 ft 338 kts 284°
2026-05-05 17:32 41.16404 20.13642 16835 ft 337 kts 283°
2026-05-05 17:32 41.16821 20.10584 16134 ft 337 kts 283°
2026-05-05 17:33 41.17236 20.07529 15456 ft 335 kts 283°
2026-05-05 17:33 41.17647 20.04494 14771 ft 333 kts 283°
2026-05-05 17:33 41.18055 20.01484 14110 ft 330 kts 283°
2026-05-05 17:33 41.18460 19.98497 13395 ft 328 kts 282°
2026-05-05 17:34 41.18855 19.95556 12568 ft 329 kts 282°
2026-05-05 17:34 41.19257 19.92567 11721 ft 330 kts 282°
2026-05-05 17:34 41.19536 19.89543 10907 ft 332 kts 269°
2026-05-05 17:34 41.19036 19.86552 10121 ft 336 kts 246°
2026-05-05 17:35 41.17696 19.84024 9264 ft 337 kts 223°
2026-05-05 17:35 41.15734 19.82364 8428 ft 336 kts 201°
2026-05-05 17:35 41.13503 19.81479 7623 ft 334 kts 194°
2026-05-05 17:35 41.11282 19.80768 6841 ft 331 kts 195°
2026-05-05 17:36 41.09259 19.79493 6341 ft 318 kts 221°
2026-05-05 17:36 41.08036 19.77198 6096 ft 299 kts 251°
2026-05-05 17:36 41.07869 19.74560 5837 ft 284 kts 282°
2026-05-05 17:36 41.08753 19.72322 5622 ft 273 kts 316°
2026-05-05 17:37 41.10371 19.71163 5513 ft 265 kts 349°
2026-05-05 17:37 41.12193 19.71124 5272 ft 263 kts 13°
2026-05-05 17:37 41.13865 19.72055 5027 ft 260 kts 26°
2026-05-05 17:37 41.15482 19.73150 4720 ft 261 kts 26°
2026-05-05 17:38 41.17092 19.74222 4577 ft 255 kts 26°
2026-05-05 17:38 41.18690 19.74998 4455 ft 246 kts
2026-05-05 17:38 41.20373 19.74889 4369 ft 238 kts 353°
2026-05-05 17:38 41.21983 19.74657 4280 ft 229 kts 353°
2026-05-05 17:39 41.23545 19.74445 4166 ft 222 kts 353°
2026-05-05 17:39 41.25047 19.74243 4107 ft 210 kts 353°
2026-05-05 17:39 41.26479 19.74048 3889 ft 204 kts 353°
2026-05-05 17:39 41.27876 19.73863 3517 ft 204 kts 353°
2026-05-05 17:40 41.29342 19.73668 2794 ft 217 kts 353°
2026-05-05 17:40 41.30848 19.73468 2320 ft 215 kts 353°
2026-05-05 17:40 41.32273 19.73279 2008 ft 199 kts 353°
2026-05-05 17:40 41.33582 19.73105 1698 ft 181 kts 353°
2026-05-05 17:41 41.34771 19.72947 1423 ft 161 kts 353°
2026-05-05 17:41 41.35833 19.72805 1175 ft 147 kts 353°
2026-05-05 17:41 41.36836 19.72680 871 ft 141 kts 354°
2026-05-05 17:41 41.37820 19.72553 661 ft 144 kts 353°
2026-05-05 17:42 41.38819 19.72414 453 ft 145 kts 353°
2026-05-05 17:42 41.39819 19.72275 247 ft 144 kts 353°
2026-05-05 17:42 41.40789 19.72142 133 ft 136 kts 354°
2026-05-05 17:42 41.41559 19.72037 122 ft 87 kts 353°
2026-05-05 17:43 41.41867 19.71974 122 ft 8 kts 298°
2026-05-05 17:43 41.41875 19.71929 121 ft 4 kts 270°
2026-05-05 17:43 41.41873 19.71888 122 ft 4 kts 264°
2026-05-05 17:43 41.41870 19.71847 123 ft 4 kts 264°
2026-05-05 17:44 41.41867 19.71801 123 ft 6 kts 266°
2026-05-05 17:44 41.41864 19.71742 123 ft 6 kts 264°
2026-05-05 17:44 41.41859 19.71684 120 ft 6 kts 264°
2026-05-05 17:44 41.41857 19.71626 123 ft 6 kts 275°
2026-05-05 17:45 41.41886 19.71586 123 ft 6 kts 338°
2026-05-05 17:45 41.41931 19.71582 122 ft 7 kts 357°
2026-05-05 17:45 41.41977 19.71577 121 ft 6 kts 354°
2026-05-05 17:45 41.42021 19.71572 121 ft 6 kts 354°
2026-05-05 17:46 41.42065 19.71565 120 ft 6 kts 354°
2026-05-05 17:46 41.42110 19.71558 121 ft 7 kts 353°
2026-05-05 17:46 41.42157 19.71551 120 ft 7 kts 354°
2026-05-05 17:46 41.42180 19.71541 119 ft 2 kts 312°
2026-05-05 17:47 41.42183 19.71521 118 ft 3 kts 275°
2026-05-05 17:47 41.42183 19.71497 119 ft 3 kts 267°
2026-05-05 17:47 41.42182 19.71486 119 ft 0 kts 265°
2026-05-05 17:47 41.42182 19.71482 119 ft 0 kts 265°